| time (UTC) | temp C | wind direction | speed KPH | gust KPH | rain 1hr cm | rain 24hr cm | rain mn cm | humidity % | barometer mb |
| 20260506224526 | 19 | 202 | 4.8 | 14.5 | 0.00 | 0.00 | 0.00 | 64 | 1016.6 |
| 20260506223627 | 18 | 222 | 6.4 | 14.5 | 0.00 | 0.00 | 0.00 | 65 | 1016.7 |
| 20260506222726 | 18 | 251 | 6.4 | 14.5 | 0.00 | 0.00 | 0.00 | 66 | 1016.8 |
| 20260506221826 | 18 | 228 | 6.4 | 12.9 | 0.00 | 0.00 | 0.00 | 67 | 1017.1 |
| 20260506220926 | 18 | 230 | 4.8 | 12.9 | 0.00 | 0.00 | 0.00 | 70 | 1017.1 |
| 20260506215126 | 18 | 204 | 4.8 | 11.3 | 0.00 | 0.00 | 0.00 | 71 | 1017.5 |
| 20260506214226 | 18 | 207 | 1.6 | 12.9 | 0.00 | 0.00 | 0.00 | 71 | 1017.7 |
| 20260506213326 | 18 | 188 | 3.2 | 12.9 | 0.00 | 0.00 | 0.00 | 73 | 1017.5 |
| 20260506212427 | 18 | 209 | 4.8 | 12.9 | 0.00 | 0.00 | 0.00 | 77 | 1017.7 |
| 20260506210627 | 18 | 178 | 4.8 | 12.9 | 0.00 | 0.00 | 0.00 | 78 | 1017.8 |
| 20260506205727 | 18 | 172 | 4.8 | 12.9 | 0.00 | 0.00 | 0.00 | 76 | 1018.0 |
| 20260506204826 | 18 | 158 | 4.8 | 12.9 | 0.00 | 0.00 | 0.00 | 78 | 1018.0 |
| 20260506203927 | 18 | 166 | 3.2 | 9.7 | 0.00 | 0.00 | 0.00 | 77 | 1018.0 |
| 20260506203026 | 18 | 173 | 3.2 | 9.7 | 0.00 | 0.00 | 0.00 | 78 | 1018.1 |
| 20260506201725 | 18 | 178 | 3.2 | 9.7 | 0.00 | 0.00 | 0.00 | 77 | 1018.2 |
| 20260506200826 | 18 | 177 | 1.6 | 12.9 | 0.00 | 0.00 | 0.00 | 75 | 1018.3 |
| 20260506195926 | 18 | 151 | 3.2 | 11.3 | 0.00 | 0.00 | 0.00 | 76 | 1018.4 |
| 20260506192326 | 18 | 195 | 3.2 | 11.3 | 0.00 | 0.00 | 0.00 | 75 | 1018.4 |
| 20260506191426 | 18 | 157 | 6.4 | 11.3 | 0.00 | 0.00 | 0.00 | 75 | 1018.4 |
| 20260506183825 | 18 | 163 | 3.2 | 11.3 | 0.00 | 0.00 | 0.00 | 77 | 1018.4 |
| 20260506182925 | 17 | 196 | 3.2 | 9.7 | 0.00 | 0.00 | 0.00 | 77 | 1018.5 |
| 20260506181126 | 17 | 151 | 3.2 | 11.3 | 0.00 | 0.00 | 0.00 | 79 | 1018.8 |
| 20260506180225 | 17 | 171 | 3.2 | 9.7 | 0.00 | 0.00 | 0.00 | 80 | 1018.7 |
| 20260506175325 | 17 | 174 | 3.2 | 9.7 | 0.00 | 0.00 | 0.00 | 80 | 1018.7 |
| 20260506174426 | 17 | 155 | 3.2 | 11.3 | 0.00 | 0.00 | 0.00 | 81 | 1018.6 |
| 20260506171726 | 17 | 190 | 1.6 | 9.7 | 0.00 | 0.00 | 0.00 | 82 | 1018.8 |
| 20260506170826 | 16 | 184 | 1.6 | 8.0 | 0.00 | 0.00 | 0.00 | 82 | 1018.7 |
| 20260506165026 | 16 | 157 | 1.6 | 8.0 | 0.00 | 0.00 | 0.00 | 84 | 1018.5 |
| 20260506164126 | 16 | 205 | 1.6 | 9.7 | 0.00 | 0.00 | 0.00 | 83 | 1018.5 |
| 20260506163225 | 16 | 161 | 1.6 | 8.0 | 0.00 | 0.00 | 0.00 | 81 | 1018.4 |
| 20260506162326 | 16 | 164 | 1.6 | 6.4 | 0.00 | 0.00 | 0.00 | 82 | 1018.5 |
| 20260506161426 | 16 | 150 | 1.6 | 8.0 | 0.00 | 0.00 | 0.00 | 82 | 1018.4 |
| 20260506155625 | 16 | 131 | 1.6 | 8.0 | 0.00 | 0.00 | 0.00 | 79 | 1018.4 |
| 20260506154726 | 16 | 146 | 1.6 | 6.4 | 0.00 | 0.00 | 0.00 | 80 | 1018.5 |
| 20260506153613 | 15 | 0 | 0.0 | 6.4 | 0.00 | 0.00 | 0.00 | 83 | 1018.5 |
| 20260506152713 | 15 | 151 | 1.6 | 6.4 | 0.00 | 0.00 | 0.00 | 86 | 1018.4 |
| 20260506151813 | 15 | 166 | 1.6 | 6.4 | 0.00 | 0.00 | 0.00 | 87 | 1018.5 |
| 20260506150913 | 15 | 166 | 1.6 | 6.4 | 0.00 | 0.00 | 0.00 | 89 | 1018.5 |
| 20260506150014 | 14 | 0 | 0.0 | 4.8 | 0.00 | 0.00 | 0.00 | 91 | 1018.3 |
| 20260506145113 | 14 | 0 | 0.0 | 4.8 | 0.00 | 0.00 | 0.00 | 92 | 1018.3 |
| 20260506144214 | 13 | 0 | 0.0 | 3.2 | 0.00 | 0.00 | 0.00 | 93 | 1018.3 |
| 20260506143313 | 13 | 0 | 0.0 | 4.8 | 0.00 | 0.00 | 0.00 | 94 | 1018.2 |
| 20260506142413 | 13 | 0 | 0.0 | 1.6 | 0.00 | 0.00 | 0.00 | 95 | 1018.1 |
| 20260506141513 | 13 | 0 | 0.0 | 1.6 | 0.00 | 0.00 | 0.00 | 95 | 1018.1 |
| 20260506140614 | 12 | 0 | 0.0 | 1.6 | 0.00 | 0.00 | 0.00 | 96 | 1018.0 |
| 20260506135713 | 12 | 0 | 0.0 | 0.0 | 0.00 | 0.00 | 0.00 | 96 | 1017.9 |
| 20260506134813 | 11 | 0 | 0.0 | 1.6 | 0.00 | 0.00 | 0.00 | 96 | 1017.8 |
| 20260506133913 | 11 | 0 | 0.0 | 3.2 | 0.00 | 0.00 | 0.00 | 95 | 1017.6 |
| 20260506133013 | 11 | 0 | 0.0 | 3.2 | 0.00 | 0.00 | 0.00 | 95 | 1017.5 |
| 20260506132113 | 11 | 0 | 0.0 | 1.6 | 0.00 | 0.00 | 0.00 | 94 | 1017.5 |
| 20260506131213 | 11 | 0 | 0.0 | 3.2 | 0.00 | 0.00 | 0.00 | 95 | 1017.5 |
| 20260506130146 | 11 | 0 | 0.0 | 3.2 | 0.00 | 0.00 | 0.00 | 94 | 1017.3 |
| 20260506125247 | 11 | 0 | 0.0 | 3.2 | 0.00 | 0.00 | 0.00 | 94 | 1017.3 |
| 20260506122547 | 11 | 35 | 1.6 | 3.2 | 0.00 | 0.00 | 0.00 | 94 | 1017.3 |
| 20260506121646 | 11 | 0 | 0.0 | 3.2 | 0.00 | 0.00 | 0.00 | 95 | 1017.3 |
| 20260506120747 | 11 | 0 | 0.0 | 3.2 | 0.00 | 0.00 | 0.00 | 94 | 1017.2 |
| 20260506115846 | 11 | 0 | 0.0 | 3.2 | 0.00 | 0.00 | 0.00 | 94 | 1017.2 |
| 20260506114947 | 11 | 0 | 0.0 | 3.2 | 0.00 | 0.00 | 0.00 | 93 | 1017.2 |
| 20260506112552 | 11 | 0 | 0.0 | 3.2 | 0.00 | 0.00 | 0.00 | 93 | 1017.2 |
| 20260506111652 | 11 | 109 | 1.6 | 3.2 | 0.00 | 0.00 | 0.00 | 93 | 1017.2 |
| 20260506110752 | 11 | 0 | 0.0 | 3.2 | 0.00 | 0.00 | 0.00 | 93 | 1017.1 |
| 20260506105853 | 11 | 0 | 0.0 | 3.2 | 0.00 | 0.00 | 0.00 | 93 | 1017.1 |
| 20260506104952 | 11 | 0 | 0.0 | 3.2 | 0.00 | 0.00 | 0.00 | 92 | 1017.0 |
| 20260506104052 | 12 | 0 | 0.0 | 3.2 | 0.00 | 0.00 | 0.00 | 93 | 1017.0 |
| 20260506102252 | 12 | 0 | 0.0 | 1.6 | 0.00 | 0.00 | 0.00 | 92 | 1016.8 |
| 20260506101352 | 12 | 0 | 0.0 | 3.2 | 0.00 | 0.00 | 0.00 | 92 | 1016.8 |
| 20260506100452 | 12 | 0 | 0.0 | 8.0 | 0.00 | 0.00 | 0.00 | 93 | 1016.9 |
| 20260506095551 | 12 | 41 | 1.6 | 8.0 | 0.00 | 0.00 | 0.00 | 93 | 1016.9 |
| 20260506094651 | 12 | 101 | 1.6 | 6.4 | 0.00 | 0.00 | 0.00 | 92 | 1016.8 |
| 20260506093752 | 12 | 0 | 0.0 | 4.8 | 0.00 | 0.00 | 0.00 | 92 | 1016.8 |
| 20260506092852 | 12 | 0 | 0.0 | 4.8 | 0.00 | 0.00 | 0.00 | 92 | 1016.8 |
| 20260506091951 | 12 | 0 | 0.0 | 4.8 | 0.00 | 0.00 | 0.00 | 92 | 1016.8 |
| 20260506091051 | 12 | 0 | 0.0 | 6.4 | 0.00 | 0.00 | 0.00 | 91 | 1016.8 |
| 20260506090152 | 12 | 63 | 1.6 | 4.8 | 0.00 | 0.00 | 0.00 | 91 | 1016.9 |
| 20260506085252 | 13 | 0 | 0.0 | 6.4 | 0.00 | 0.00 | 0.00 | 91 | 1017.1 |
| 20260506084351 | 13 | 60 | 3.2 | 8.0 | 0.00 | 0.00 | 0.00 | 91 | 1017.2 |
| 20260506083451 | 13 | 56 | 3.2 | 11.3 | 0.00 | 0.00 | 0.00 | 91 | 1017.2 |
| 20260506082552 | 13 | 58 | 4.8 | 11.3 | 0.00 | 0.00 | 0.00 | 91 | 1017.1 |
| 20260506081652 | 13 | 0 | 0.0 | 6.4 | 0.00 | 0.00 | 0.00 | 91 | 1017.3 |
| 20260506080752 | 13 | 66 | 3.2 | 9.7 | 0.00 | 0.00 | 0.00 | 91 | 1017.2 |
| 20260506072819 | 13 | 59 | 4.8 | 8.0 | 0.00 | 0.00 | 0.00 | 90 | 1017.0 |
| 20260506071919 | 13 | 59 | 3.2 | 8.0 | 0.00 | 0.00 | 0.00 | 90 | 1016.8 |
| 20260506071019 | 13 | 60 | 1.6 | 8.0 | 0.00 | 0.00 | 0.00 | 90 | 1016.7 |
| 20260506070120 | 13 | 51 | 1.6 | 4.8 | 0.00 | 0.00 | 0.00 | 90 | 1016.6 |
| 20260506061619 | 13 | 64 | 1.6 | 12.9 | 0.00 | 0.00 | 0.00 | 88 | 1016.1 |
| 20260506051043 | 15 | 56 | 4.8 | 8.0 | 0.00 | 0.00 | 0.00 | 81 | 1015.7 |
| 20260506050143 | 15 | 0 | 0.0 | 4.8 | 0.00 | 0.00 | 0.00 | 78 | 1015.5 |
| 20260506044342 | 15 | 0 | 0.0 | 9.7 | 0.00 | 0.00 | 0.00 | 74 | 1015.3 |
| 20260506042543 | 16 | 114 | 1.6 | 14.5 | 0.00 | 0.00 | 0.00 | 69 | 1015.2 |
| 20260506041642 | 16 | 303 | 4.8 | 12.9 | 0.00 | 0.00 | 0.00 | 69 | 1014.9 |
| 20260506040743 | 17 | 325 | 1.6 | 9.7 | 0.00 | 0.00 | 0.00 | 69 | 1014.7 |
| 20260506035842 | 17 | 314 | 1.6 | 11.3 | 0.00 | 0.00 | 0.00 | 68 | 1014.6 |
| 20260506034943 | 17 | 304 | 4.8 | 12.9 | 0.00 | 0.00 | 0.00 | 68 | 1014.5 |
| 20260506034043 | 17 | 297 | 8.0 | 16.1 | 0.00 | 0.00 | 0.00 | 67 | 1014.4 |
| 20260506033142 | 17 | 293 | 8.0 | 14.5 | 0.00 | 0.00 | 0.00 | 66 | 1014.3 |
| 20260506032243 | 17 | 296 | 6.4 | 17.7 | 0.00 | 0.00 | 0.00 | 66 | 1014.2 |
| 20260506031343 | 17 | 303 | 9.7 | 17.7 | 0.00 | 0.00 | 0.00 | 66 | 1014.0 |
| 20260506030432 | 17 | 300 | 11.3 | 19.3 | 0.00 | 0.00 | 0.00 | 65 | 1013.9 |
| 20260506025532 | 18 | 289 | 4.8 | 17.7 | 0.00 | 0.00 | 0.00 | 64 | 1013.7 |
| 20260506024633 | 18 | 305 | 4.8 | 17.7 | 0.00 | 0.00 | 0.00 | 64 | 1013.7 |
| 20260506023732 | 18 | 308 | 4.8 | 16.1 | 0.00 | 0.00 | 0.00 | 65 | 1013.7 |
| 20260506022832 | 17 | 300 | 6.4 | 16.1 | 0.00 | 0.00 | 0.00 | 68 | 1013.5 |
| 20260506021932 | 17 | 0 | 0.0 | 3.2 | 0.00 | 0.00 | 0.00 | 72 | 1013.5 |
| 20260506021032 | 17 | 0 | 0.0 | 4.8 | 0.00 | 0.00 | 0.00 | 71 | 1013.4 |
| 20260506020133 | 17 | 319 | 1.6 | 8.0 | 0.00 | 0.00 | 0.00 | 70 | 1013.5 |
| 20260506015233 | 17 | 296 | 3.2 | 8.0 | 0.00 | 0.00 | 0.00 | 70 | 1013.3 |
| 20260506014332 | 17 | 295 | 3.2 | 11.3 | 0.00 | 0.00 | 0.00 | 70 | 1013.3 |
| 20260506011633 | 18 | 260 | 3.2 | 9.7 | 0.00 | 0.00 | 0.00 | 68 | 1013.3 |
| 20260506010732 | 17 | 256 | 4.8 | 17.7 | 0.00 | 0.00 | 0.00 | 70 | 1013.2 |
| 20260506005833 | 17 | 265 | 8.0 | 17.7 | 0.00 | 0.00 | 0.00 | 70 | 1013.3 |
| 20260506004932 | 17 | 238 | 4.8 | 14.5 | 0.00 | 0.00 | 0.00 | 73 | 1013.2 |
| 20260506004032 | 16 | 254 | 6.4 | 14.5 | 0.00 | 0.00 | 0.00 | 73 | 1013.2 |
| 20260506002748 | 16 | 273 | 6.4 | 17.7 | 0.00 | 0.00 | 0.00 | 72 | 1013.2 |
| 20260506001848 | 16 | 279 | 4.8 | 14.5 | 0.00 | 0.00 | 0.00 | 72 | 1013.2 |
| 20260506000948 | 17 | 307 | 6.4 | 16.1 | 0.00 | 0.00 | 0.00 | 72 | 1013.1 |
| 20260506000048 | 17 | 265 | 6.4 | 22.5 | 0.00 | 0.00 | 0.00 | 71 | 1012.9 |
| 20260505235147 | 18 | 244 | 8.0 | 24.1 | 0.00 | 0.00 | 0.00 | 69 | 1012.8 |
| 20260505234248 | 18 | 258 | 12.9 | 27.4 | 0.00 | 0.00 | 0.00 | 69 | 1012.7 |
| 20260505232607 | 17 | 267 | 11.3 | 27.4 | 0.00 | 0.00 | 0.00 | 70 | 1012.9 |
| 20260505231707 | 17 | 260 | 14.5 | 27.4 | 0.00 | 0.00 | 0.00 | 69 | 1012.9 |
| 20260505230807 | 17 | 241 | 12.9 | 22.5 | 0.00 | 0.00 | 0.00 | 69 | 1012.9 |
| 20260505225907 | 17 | 256 | 11.3 | 22.5 | 0.00 | 0.00 | 0.00 | 68 | 1012.9 |